User: anonymous   Login
Location: Lac de la Montange Noire
(46.1952°N, 74.2701°W)
Time: 08:18:44
(UTC-04:00)
Language:

Iridium 42 - Orbit

View from above orbital plane
View from above orbital plane
View from above satellite
View from above satellite

Ground track
Ground track

The orbit data is extracted from the following two-line orbital elements,

1 25077U 97077A   15247.53252546  .00000080  00000-0  21293-4 0  9991
2 25077  86.3952 294.3536 0002104  94.1897 265.9539 14.34402014928778
Epoch (UTC): 04 September 2015 12:46:50
Eccentricity: 0.0002104
inclination: 86.3952°
perigee height: 775 km
apogee height: 778 km
right ascension of ascending node: 294.3536°
argument of perigee: 94.1897°
revolutions per day: 14.34402014
mean anomaly at epoch: 265.9539°
orbit number at epoch: 92877

The dashed part of the orbit path shows where the satellite is in the earth's shadow,  

DLR